MDSD

Details ICAO MDSD (SDQ)
Name Las Americas Intl
Region Dominican Republic
Timezone America/Santo_Domingo (UTC-4.0)
Plans Departing 410
Arriving 421
Stats Elevation 59 ft / 18 m (AMSL)
Location 18.429662° -69.668925°
Runways 1
Magnetic Variation 11.568° W
Sunrise 2018-05-24 10:04:06 UTC / 2018-05-24 06:04:06 Local
Sunset 2018-05-24 23:09:50 UTC / 2018-05-24 19:09:50 Local
Advertisement - Login to hide

Runways

ID Width Length Bearing (true) Bearing (mag) Surface Threshold Offset Overrun Length
17 200 ft / 61 m 11,051 ft / 3,368 m 160.78° 172.35° Asphalt 0 ft / 0 m 0 ft / 0 m
35 200 ft / 61 m 11,051 ft / 3,368 m 340.79° 352.36° Asphalt 0 ft / 0 m 0 ft / 0 m

Approach Navaids

Runway Type Ident Frequency Range Bearing (true) Bearing (mag) Slope Elevation
17 Localiser ICDO 108.90 MHz 18 nm / 33 km 160.59° 172.15° - 58 ft / 18 m (AMSL)
17 Glidescope ICDO 108.90 MHz 10 nm / 19 km 160.78° 172.35° 3.00° 35 ft / 11 m (AMSL)
17 DME ICDO 108.90 MHz 18 nm / 33 km - - - 35 ft / 11 m (AMSL)

Map

Weather


0- 5 10 15 20 25 30 35+ Temperature / ° C

Clouds and Precipitation
Forecast for 2018-05-25 00:00 UTC. Updated 10 minutes ago

Ground ~20,000 ft ~40,000 ft Winds

METAR

MDSD 242300Z 14006KT 9999 FEW018CB SCT020 SCT300 27/23 Q1015 CB/NE/N

TAF

Not found

Frequencies

Recorded 126.20 MHz ATIS
Tower 118.10 MHz TWR
Ground 121.90 MHz GND
Approach 119.30 MHz APP
Warning: Do not use this data for real-world aviation or navigation. No guarantee of current accuracy is given.